"Pseudo-MPEC" for P11OiVE

Created 2023 Dec 2 1:22:04 UT using Find_Orb

Click here for an explanation of pseudo-MPECs

 
 Astrometry: 
     P11OiVE* C2023 11 18-K5C+3^wN9?-Gl-T?vm,EQub]`AstrometryO:ya!Jredacted;QF51
     P11OiVE  C2023 11 18xU7,lPI27JXEYRuL^@W3\ns1brMcC$bRvS9i)U@@3?y?:Kclick#F51
     P11OiVE  C2023 11 185]7qQd]:]0#Zh?fdr%SUA.PbvIa;gs-Jd$UNao1KME9F2$s71(3tF51
     P11OiVE 7C2023 11 19XOp\6eW^a[e7Q'`,3bF4NJae5iR/'Y^rE8)]yehere`Vky-,*IRrZ84
     P11OiVE 7C2023 11 19wVYcEHoUJw4bI3TRqSqWLMH%j/1NY=FVM%ss'iNR@nCPIuGVmX\@Z84
     P11OiVE 7C2023 11 19Zbdislk8Yq,7yO?+o\yl2h3Y5ko/%WtH+@KvY^:PjR)@K4i-h\?jZ84
     P11OiVE KC2023 11 21$R#9ws*PK5qP1P4LZXXx)RBktX0e6=B)no+q\v5SL!]:Mqr_iKBv474
     P11OiVE KC2023 11 21m3p%x5ooXxcM]Z'?0=L\cvforE5I^$tZAnqFl,o;m$FP9MJIDv`:474
     P11OiVE KC2023 11 216;O_ySYZ.explanation(%Neoi^m*m,WqVVGra,46l3DKG,Oe#Pv474
     P11OiVE KC2023 11 29.12935902 09 08.402-17 14 38.11   ~BT3b 21.95GVNEOCPI52
     P11OiVE KC2023 11 29.13218902 09 07.304-17 14 41.57   ~BT3b 20.33GVNEOCPI52

Station data:
(474) Mount John Observatory, Lake Tekapo  (S43.987385 E170.464960)  New
   Zealand.  Observers A. C. Gilmore, P. M. Kilmartin. Measurer P. M.
   Kilmartin. 1.0-m f/7.7 reflector + CCD.
(F51) Pan-STARRS 1, Haleakala  (N20.707234 W156.255910)  US/Hawaii.
   Observers J. Bulger, T. Lowe, A. Schultz, M. Willman. Measurers K.
   Chambers, S. Chastel, T. de Boer, L. Denneau, J. Fairlamb, H. Flewelling,
   M. Huber, C.-C. Lin, E. Magnier, Y. Ramanjooloo, R. Wainscoat, R. Weryk.
   1.8-m Ritchey-Chrétien + CCD.
(I52) Steward Observatory, Mt. Lemmon Station  (N32.442544 W110.788920)
   US/Arizona.  Observers T. A. Pruyne, B. M. Africano, E. J. Christensen, G.
   A. Farneth, D. C. Fuls, A. R. Gibbs, A. D. Grauer, H. Gröller, J. A.
   Johnson, R. A. Kowalski, S. M. Larson, G. J. Leonard, D. Rankin, R. L.
   Seaman, F. C. Shelly, K. W. Wierzchoś. 1.0-m prime focus + CCD.
(Z84) Calar Alto-Schmidt  (N37.224046 W2.548210)  Spain.  Observer F. Ocana.
   Measurers E. Schwab, D. Koschny, M. Micheli. 0.8-m f/3 Schmidt + CCD.

Orbital elements:  P11OiVE
   Perihelion 2024 Jan 11.16100 +/- 0.0205 TT =  3:51:50 (JD 2460320.66100)
Epoch 2023 Nov 29.0 TT = JDT 2460277.5   Earth MOID: 0.0066      AutoNEOCP
M 339.68868134 +/- 0.10             (J2000 ecliptic)
n   0.47059424 +/- 0.00229          Peri.   39.58690 +/- 0.008
a   1.63696089 +/- 0.00532          Node    78.16635 +/- 0.0032
e   0.4480371 +/- 0.00197           Incl.    7.82658 +/- 0.027
P   2.09/764.98d           H 24.73  G  0.15   U  8.7
q 0.90354155 +/- 0.000289    Q 2.37038024 +/- 0.0109
From 11 observations 2023 Nov. 18-29; mean residual 0".10
Residuals in arcseconds: 
231118 F51  .01+  .01-    231119 Z84  .07+  .02+    231121 474  .02-  .26-    
231118 F51  .06-  .07-    231119 Z84  .05+  .09+    231129 I52  .04+  .09+    
231118 F51  .01+  .15+    231121 474  .11+  .02+    231129 I52  .06-  .03-    
231119 Z84  .04+  .22-    231121 474  .05-  .10-    

Ephemerides (geocentric):
Date (UTC) HH   RA             Dec           delta  r     elong  mag " sig PA
---- --------  ------------   ------------  ------ ------ -----  --- --------
2023 12 02 01  01 48 19.562   -18 09 26.30  .05961 1.0203 123.7 20.6 2.05 109
2023 12 02 02  01 47 57.506   -18 10 18.02  .05940 1.0201 123.6 20.6 2.09 109
2023 12 02 03  01 47 35.301   -18 11 09.83  .05920 1.0199 123.5 20.6 2.14 109
2023 12 02 04  01 47 12.946   -18 12 01.74  .05900 1.0197 123.4 20.6 2.18 108
2023 12 02 05  01 46 50.441   -18 12 53.75  .05879 1.0194 123.3 20.6 2.23 108
2023 12 02 06  01 46 27.782   -18 13 45.85  .05859 1.0192 123.2 20.6 2.28 108
2023 12 02 07  01 46 04.970   -18 14 38.05  .05839 1.0190 123.1 20.6 2.32 107
2023 12 02 08  01 45 42.001   -18 15 30.35  .05818 1.0188 122.9 20.6 2.37 107
2023 12 02 09  01 45 18.875   -18 16 22.74  .05798 1.0186 122.8 20.6 2.42 107
2023 12 02 10  01 44 55.590   -18 17 15.22  .05778 1.0184 122.7 20.6 2.47 107
2023 12 02 11  01 44 32.145   -18 18 07.80  .05758 1.0181 122.6 20.6 2.53 106
2023 12 02 12  01 44 08.537   -18 19 00.47  .05738 1.0179 122.5 20.6 2.58 106
2023 12 02 13  01 43 44.766   -18 19 53.23  .05717 1.0177 122.4 20.5 2.63 106
2023 12 02 14  01 43 20.829   -18 20 46.09  .05697 1.0175 122.3 20.5 2.69 106
2023 12 02 15  01 42 56.725   -18 21 39.03  .05677 1.0173 122.1 20.5 2.74 105
2023 12 02 16  01 42 32.452   -18 22 32.07  .05657 1.0171 122.0 20.5 2.80 105
2023 12 02 17  01 42 08.008   -18 23 25.19  .05637 1.0168 121.9 20.5 2.86 105
2023 12 02 18  01 41 43.392   -18 24 18.40  .05617 1.0166 121.8 20.5 2.92 105
2023 12 02 19  01 41 18.602   -18 25 11.70  .05597 1.0164 121.7 20.5 2.98 104
2023 12 02 20  01 40 53.636   -18 26 05.08  .05576 1.0162 121.6 20.5 3.04 104
2023 12 02 21  01 40 28.493   -18 26 58.55  .05556 1.0160 121.4 20.5 3.10 104
2023 12 02 22  01 40 03.170   -18 27 52.11  .05536 1.0158 121.3 20.5 3.17 104
2023 12 02 23  01 39 37.665   -18 28 45.74  .05516 1.0156 121.2 20.5 3.23 104
2023 12 03 00  01 39 11.978   -18 29 39.46  .05496 1.0153 121.1 20.5 3.30 103
2023 12 03 01  01 38 46.105   -18 30 33.26  .05476 1.0151 121.0 20.5 3.36 103
2023 12 03 02  01 38 20.045   -18 31 27.14  .05456 1.0149 120.8 20.5 3.43 103
2023 12 03 03  01 37 53.796   -18 32 21.09  .05436 1.0147 120.7 20.5 3.50 103
2023 12 03 04  01 37 27.356   -18 33 15.12  .05416 1.0145 120.6 20.5 3.57 103
2023 12 03 05  01 37 00.723   -18 34 09.22  .05397 1.0143 120.5 20.5 3.64 102
2023 12 03 06  01 36 33.895   -18 35 03.40  .05377 1.0141 120.3 20.5 3.72 102
2023 12 03 07  01 36 06.870   -18 35 57.65  .05357 1.0138 120.2 20.5 3.79 102
2023 12 03 08  01 35 39.646   -18 36 51.96  .05337 1.0136 120.1 20.5 3.87 102
2023 12 03 09  01 35 12.221   -18 37 46.35  .05317 1.0134 119.9 20.5 3.94 102
2023 12 03 10  01 34 44.592   -18 38 40.80  .05297 1.0132 119.8 20.5 4.02 101
2023 12 03 11  01 34 16.758   -18 39 35.31  .05277 1.0130 119.7 20.4 4.10 101
2023 12 03 12  01 33 48.717   -18 40 29.89  .05258 1.0128 119.6 20.4 4.18 101
2023 12 03 13  01 33 20.465   -18 41 24.52  .05238 1.0126 119.4 20.4 4.27 101
2023 12 03 14  01 32 52.001   -18 42 19.21  .05218 1.0123 119.3 20.4 4.35 101
2023 12 03 15  01 32 23.323   -18 43 13.96  .05198 1.0121 119.2 20.4 4.44 101
2023 12 03 16  01 31 54.429   -18 44 08.76  .05179 1.0119 119.0 20.4 4.52 100
2023 12 03 17  01 31 25.315   -18 45 03.60  .05159 1.0117 118.9 20.4 4.61 100
2023 12 03 18  01 30 55.980   -18 45 58.50  .05139 1.0115 118.8 20.4 4.70 100
2023 12 03 19  01 30 26.422   -18 46 53.44  .05120 1.0113 118.6 20.4 4.79 100
2023 12 03 20  01 29 56.637   -18 47 48.42  .05100 1.0111 118.5 20.4 4.89 100
2023 12 03 21  01 29 26.624   -18 48 43.44  .05080 1.0109 118.3 20.4 4.98 100
2023 12 03 22  01 28 56.380   -18 49 38.50  .05061 1.0106 118.2 20.4 5.08 100
2023 12 03 23  01 28 25.902   -18 50 33.59  .05041 1.0104 118.1 20.4 5.18  99
2023 12 04 00  01 27 55.189   -18 51 28.71  .05022 1.0102 117.9 20.4 5.28  99